SCP
-0 0 0 0 0 -0 -0 -0 0 0 -0 0 0 0 0 -0 -0 0 -0 -0 -0 -0 -0 0 0 0 0 -0 0 0 0 0
0 0 0 0 -0 -0 0 0 0 0 -0 0 0 0 0 -0 -0 0 -0 -0 -0 -0 0 0 0 0 0 0 0 0 0 0
0 -0 -0 -0 0 0 -0 0 0 0 0 0 0 0 0 0 0 0 0 0 0 0 0 0 0 0 0 0 0 0 0 0
-0 -0 0 0 0 0 0 -0 0 0 0 0 0 0 0 0 0 0 0 0 0 0 0 -0 0 1 1 0 0 0 0 0
0 -0 0 0 0 0 -0 -0 0 -0 0 0 0 0 0 0 0 0 0 0 0 0 0 0 0 0 0 0 0 0 0 0
0 0 0 0 0 0 0 0 0 0 0 0 0 0 0 0 0 0 0 0 0 0 0 -0 0 0 0 0 0 0 0 0
0 0 0 0 0 0 0 0 0 0 0 0 0 0 0 0 0 0 0 0 0 0 0 0 -0 1 1 1 1 1 1 0
0 0 0 0 0 0 0 0 0 0 0 0 0 0 0 0 0 0 0 0 0 0 0 0 0 -0 0 1 1 2 1 1
0 0 0 0 -0 0 0 0 0 0 0 0 0 0 0 0 0 0 0 0 0 0 0 0 0 0 0 0 0 1 0 1
0 0 0 0 0 0 0 0 0 0 0 0 0 0 0 0 0 0 0 0 0 0 0 0 0 0 0 0 0 1 1 1
0 0 0 0 0 0 0 0 0 0 0 0 0 0 0 0 0 0 0 0 0 0 0 0 0 0 0 0 0 1 0 1
0 0 0 0 0 0 0 0 0 0 0 0 0 0 0 0 0 0 0 0 0 0 0 0 0 0 0 0 0 0 0 0
0 0 0 0 0 0 0 0 0 0 0 0 0 0 0 0 0 0 0 0 0 0 0 0 0 0 0 0 0 0 0 1
0 0 0 0 0 0 0 0 0 0 0 0 0 0 0 0 0 0 0 0 0 0 0 0 0 0 0 0 0 0 0 0
0 0 0 0 0 0 0 0 0 0 0 0 0 0 0 0 0 0 0 0 0 0 0 0 0 0 0 0 0 0 0 0
0 0 0 0 0 0 0 0 0 0 0 0 0 0 0 0 0 0 0 0 0 0 0 0 0 0 0 0 0 0 0 0
0 0 0 0 0 0 0 0 0 0 0 0 0 0 0 0 0 0 0 0 0 0 0 0 0 0 0 0 0 0 0 0
0 0 0 0 0 0 0 0 0 0 0 0 0 0 0 0 0 0 0 0 0 0 0 0 0 0 0 0 0 0 0 0
1 0 0 0 0 0 0 0 0 0 0 0 0 0 0 0 0 0 -0 -0 0 0 0 0 0 0 0 0 0 0 0 0
Wind_Speed_500mb
30 20 20 12 15 28 18 15 9 9 10 20 9 14 14 16 18 16 27 40 36 42 42 38 39 39 41 39 38 37 37 36
24 18 21 29 25 13 13 4 20 4 8 21 18 13 10 11 24 14 15 23 38 40 41 41 43 41 42 41 38 38 36 35
18 25 30 16 20 15 24 15 7 5 15 20 23 12 8 16 10 17 17 14 18 32 34 39 39 43 46 44 41 38 39 38
33 29 15 22 18 17 13 16 13 16 14 21 23 22 10 18 19 17 11 9 11 22 33 41 43 34 37 47 42 42 41 40
25 28 24 21 28 27 27 26 19 20 16 14 20 26 16 19 19 13 10 9 7 10 18 28 36 42 44 42 39 42 41 41
3 26 7 26 18 10 26 21 16 18 32 28 25 18 17 12 15 14 11 11 11 11 11 17 28 35 42 42 42 39 41 44
21 30 8 15 16 16 22 30 32 11 13 12 20 15 26 16 16 16 13 13 12 11 10 11 21 20 38 35 32 39 43 40
26 12 12 21 20 24 22 24 27 18 21 17 20 9 13 18 17 18 16 12 12 11 11 13 17 22 28 30 32 34 32 42
29 26 18 21 27 26 21 20 19 21 8 19 5 9 17 18 17 18 15 12 12 11 11 10 13 19 17 20 31 18 31 37
23 23 25 24 7 11 17 18 18 20 20 11 8 10 17 19 20 18 18 11 9 8 8 7 8 11 14 24 28 46 43 38
22 27 23 20 15 19 18 20 18 18 14 13 11 17 16 18 19 18 16 11 9 7 8 10 11 13 17 18 21 28 44 38
21 27 32 25 7 21 6 20 21 15 10 17 21 20 18 20 15 13 10 9 9 10 13 14 15 16 17 20 26 32 34 37
28 19 22 8 14 17 15 6 8 19 19 27 16 22 28 18 11 6 6 11 13 15 16 18 20 18 22 22 25 25 29 31
28 29 28 19 20 20 4 5 5 13 19 19 17 12 13 8 3 9 16 21 23 21 21 21 21 21 22 31 24 25 27 29
28 25 23 21 26 21 25 8 10 12 15 14 22 14 7 4 7 12 14 17 19 22 23 23 23 23 26 30 27 24 27 25
26 25 8 28 22 18 25 12 18 17 15 19 17 14 8 5 8 12 15 18 21 23 24 25 22 21 35 27 24 23 24 28
26 8 23 23 23 27 22 19 14 15 18 18 19 13 7 6 10 14 20 24 23 23 25 26 25 28 26 27 19 24 25 23
18 30 29 25 29 29 29 25 22 21 19 19 16 12 9 9 11 18 24 26 23 23 24 25 24 29 22 30 26 24 27 27
16 11 14 8 7 32 33 28 26 26 25 22 16 13 10 6 9 17 20 18 17 21 23 27 28 24 23 32 21 22 21 32
Wind_Direction_500mb
185 230 262 150 255 277 298 198 266 140 169 136 108 128 130 125 157 185 201 197 209 211 210 200 198 200 200 195 201 203 203 202
178 241 244 282 331 213 216 185 261 138 221 128 187 96 133 190 125 126 163 205 196 207 209 208 201 204 202 202 204 207 205 207
157 208 219 189 238 237 286 336 298 103 10 93 120 110 86 105 113 116 129 152 186 199 207 210 211 204 202 205 207 211 209 209
203 210 266 304 282 242 224 191 291 326 129 100 120 128 118 107 103 104 97 121 172 190 204 210 212 209 214 203 212 213 212 211
200 184 206 241 248 267 276 282 173 269 120 134 140 137 151 132 132 132 120 107 129 185 199 211 207 214 208 212 210 213 209 213
150 319 169 199 222 254 277 276 258 243 140 162 161 154 149 156 147 143 137 130 131 151 178 205 214 207 212 209 210 210 215 215
182 236 275 301 290 276 257 270 283 74 258 59 104 139 158 178 168 160 155 140 147 156 172 188 205 207 199 210 211 211 215 222
294 228 260 271 265 264 253 255 256 287 285 80 108 107 149 174 182 183 167 156 147 143 157 180 189 191 204 215 213 210 226 227
241 254 205 253 251 252 246 253 253 250 269 94 132 155 163 178 192 186 174 167 158 160 163 162 182 189 191 216 230 256 241 234
244 256 226 252 36 334 314 297 279 271 277 162 144 164 166 176 185 180 171 168 174 173 173 188 193 216 221 223 233 239 255 242
245 241 234 209 198 230 240 257 255 257 255 128 158 173 163 165 164 167 173 178 186 213 235 246 248 245 244 240 234 233 242 250
218 255 256 241 211 155 287 265 230 191 219 161 187 213 145 152 156 161 171 196 232 246 262 268 273 271 265 257 247 243 246 238
226 227 242 235 121 116 227 59 114 178 192 165 193 71 126 151 164 185 236 257 260 266 268 272 274 273 276 277 268 265 264 254
233 233 234 146 158 193 4 126 254 190 195 160 126 161 156 166 250 288 290 284 271 262 270 275 276 275 275 281 286 275 267 264
228 224 197 158 216 198 244 188 199 195 202 179 177 198 217 242 311 316 310 302 287 273 273 274 277 279 277 282 289 253 255 266
237 256 129 190 193 212 205 199 181 202 204 186 204 210 206 257 305 316 314 309 296 280 274 276 278 281 279 290 282 248 260 251
219 243 197 194 207 201 209 191 213 193 188 195 202 200 217 287 302 304 309 306 294 281 273 274 282 277 287 287 271 268 260 248
227 199 195 193 206 219 196 204 206 198 193 199 199 203 200 270 304 306 307 302 288 279 277 278 279 282 289 284 259 260 267 262
52 85 191 207 243 201 205 202 205 200 195 189 192 196 203 260 294 304 321 306 286 284 282 284 280 278 276 281 258 260 254 227
Wind_Speed_850mb
30 20 20 12 15 28 18 15 9 9 10 20 9 14 14 16 18 16 27 40 36 42 42 38 39 39 41 39 38 37 37 36
24 18 21 29 25 13 13 4 20 4 8 21 18 13 10 11 24 14 15 23 38 40 41 41 43 41 42 41 38 38 36 35
18 25 30 16 20 15 24 15 7 5 15 20 23 12 8 16 10 17 17 14 18 32 34 39 39 43 46 44 41 38 39 38
33 29 15 22 18 17 13 16 13 16 14 21 23 22 10 18 19 17 11 9 11 22 33 41 43 34 37 47 42 42 41 40
25 28 24 21 28 27 27 26 19 20 16 14 20 26 16 19 19 13 10 9 7 10 18 28 36 42 44 42 39 42 41 41
3 26 7 26 18 10 26 21 16 18 32 28 25 18 17 12 15 14 11 11 11 11 11 17 28 35 42 42 42 39 41 44
21 30 8 15 16 16 22 30 32 11 13 12 20 15 26 16 16 16 13 13 12 11 10 11 21 20 38 35 32 39 43 40
26 12 12 21 20 24 22 24 27 18 21 17 20 9 13 18 17 18 16 12 12 11 11 13 17 22 28 30 32 34 32 42
29 26 18 21 27 26 21 20 19 21 8 19 5 9 17 18 17 18 15 12 12 11 11 10 13 19 17 20 31 18 31 37
23 23 25 24 7 11 17 18 18 20 20 11 8 10 17 19 20 18 18 11 9 8 8 7 8 11 14 24 28 46 43 38
22 27 23 20 15 19 18 20 18 18 14 13 11 17 16 18 19 18 16 11 9 7 8 10 11 13 17 18 21 28 44 38
21 27 32 25 7 21 6 20 21 15 10 17 21 20 18 20 15 13 10 9 9 10 13 14 15 16 17 20 26 32 34 37
28 19 22 8 14 17 15 6 8 19 19 27 16 22 28 18 11 6 6 11 13 15 16 18 20 18 22 22 25 25 29 31
28 29 28 19 20 20 4 5 5 13 19 19 17 12 13 8 3 9 16 21 23 21 21 21 21 21 22 31 24 25 27 29
28 25 23 21 26 21 25 8 10 12 15 14 22 14 7 4 7 12 14 17 19 22 23 23 23 23 26 30 27 24 27 25
26 25 8 28 22 18 25 12 18 17 15 19 17 14 8 5 8 12 15 18 21 23 24 25 22 21 35 27 24 23 24 28
26 8 23 23 23 27 22 19 14 15 18 18 19 13 7 6 10 14 20 24 23 23 25 26 25 28 26 27 19 24 25 23
18 30 29 25 29 29 29 25 22 21 19 19 16 12 9 9 11 18 24 26 23 23 24 25 24 29 22 30 26 24 27 27
16 11 14 8 7 32 33 28 26 26 25 22 16 13 10 6 9 17 20 18 17 21 23 27 28 24 23 32 21 22 21 32
Wind_Direction_850mb
185 230 262 150 255 277 298 198 266 140 169 136 108 128 130 125 157 185 201 197 209 211 210 200 198 200 200 195 201 203 203 202
178 241 244 282 331 213 216 185 261 138 221 128 187 96 133 190 125 126 163 205 196 207 209 208 201 204 202 202 204 207 205 207
157 208 219 189 238 237 286 336 298 103 10 93 120 110 86 105 113 116 129 152 186 199 207 210 211 204 202 205 207 211 209 209
203 210 266 304 282 242 224 191 291 326 129 100 120 128 118 107 103 104 97 121 172 190 204 210 212 209 214 203 212 213 212 211
200 184 206 241 248 267 276 282 173 269 120 134 140 137 151 132 132 132 120 107 129 185 199 211 207 214 208 212 210 213 209 213
150 319 169 199 222 254 277 276 258 243 140 162 161 154 149 156 147 143 137 130 131 151 178 205 214 207 212 209 210 210 215 215
182 236 275 301 290 276 257 270 283 74 258 59 104 139 158 178 168 160 155 140 147 156 172 188 205 207 199 210 211 211 215 222
294 228 260 271 265 264 253 255 256 287 285 80 108 107 149 174 182 183 167 156 147 143 157 180 189 191 204 215 213 210 226 227
241 254 205 253 251 252 246 253 253 250 269 94 132 155 163 178 192 186 174 167 158 160 163 162 182 189 191 216 230 256 241 234
244 256 226 252 36 334 314 297 279 271 277 162 144 164 166 176 185 180 171 168 174 173 173 188 193 216 221 223 233 239 255 242
245 241 234 209 198 230 240 257 255 257 255 128 158 173 163 165 164 167 173 178 186 213 235 246 248 245 244 240 234 233 242 250
218 255 256 241 211 155 287 265 230 191 219 161 187 213 145 152 156 161 171 196 232 246 262 268 273 271 265 257 247 243 246 238
226 227 242 235 121 116 227 59 114 178 192 165 193 71 126 151 164 185 236 257 260 266 268 272 274 273 276 277 268 265 264 254
233 233 234 146 158 193 4 126 254 190 195 160 126 161 156 166 250 288 290 284 271 262 270 275 276 275 275 281 286 275 267 264
228 224 197 158 216 198 244 188 199 195 202 179 177 198 217 242 311 316 310 302 287 273 273 274 277 279 277 282 289 253 255 266
237 256 129 190 193 212 205 199 181 202 204 186 204 210 206 257 305 316 314 309 296 280 274 276 278 281 279 290 282 248 260 251
219 243 197 194 207 201 209 191 213 193 188 195 202 200 217 287 302 304 309 306 294 281 273 274 282 277 287 287 271 268 260 248
227 199 195 193 206 219 196 204 206 198 193 199 199 203 200 270 304 306 307 302 288 279 277 278 279 282 289 284 259 260 267 262
52 85 191 207 243 201 205 202 205 200 195 189 192 196 203 260 294 304 321 306 286 284 282 284 280 278 276 281 258 260 254 227